RH
36 37 42 48 44 43 41 40 45 46 46 45 42 49 53 52 53 57 62 51 45 38 41 42 41 42 41 36 41 46 50 53 55 59 60 58 54 53 47 43 39 33 31 31
39 40 42 44 43 47 47 44 46 46 46 40 34 41 52 51 46 45 50 54 51 49 41 40 42 43 42 43 41 45 53 56 59 61 60 60 59 57 50 45 41 36 35 35
43 36 42 42 42 48 48 46 42 40 34 32 36 40 48 51 50 56 52 48 42 38 37 37 40 43 45 46 46 44 52 57 62 61 63 63 63 59 50 46 43 41 41 41
43 39 40 44 44 46 46 46 42 40 38 42 35 47 46 46 50 53 54 58 56 40 39 41 43 42 42 49 53 55 57 61 66 63 63 62 64 73 48 47 44 45 46 49
46 44 46 44 42 45 46 44 41 37 44 46 45 45 37 44 52 50 50 55 58 55 46 42 44 53 55 51 57 58 60 69 68 64 64 61 63 70 54 51 50 50 52 55
46 43 45 42 47 43 45 44 45 46 46 55 48 47 42 45 43 44 44 44 53 53 50 50 55 57 54 55 57 66 70 69 71 62 62 61 65 65 68 64 62 61 61 60
46 46 47 47 48 44 40 44 51 51 60 58 50 52 43 39 43 40 40 43 44 49 48 49 50 56 57 56 61 63 63 65 66 58 54 63 65 69 72 71 73 70 68 66
47 50 47 46 46 43 41 44 49 49 59 49 51 49 37 34 34 38 40 34 38 42 43 46 52 60 59 61 60 61 59 72 64 66 63 64 73 72 80 80 79 76 73 71
50 50 48 48 48 42 43 42 43 53 58 57 46 42 35 32 36 38 35 35 31 31 33 38 49 51 55 54 53 57 59 55 57 63 64 65 74 83 83 79 80 81 80 79
44 48 47 49 48 47 45 44 45 52 54 57 48 42 41 32 39 39 43 37 30 25 27 31 35 37 41 41 41 43 47 48 53 52 55 61 76 80 78 80 83 82 83 82
39 42 48 51 48 44 47 49 47 43 52 54 59 44 35 36 28 27 32 34 29 30 27 28 27 30 32 32 34 39 42 45 50 55 58 60 65 72 77 78 78 82 83 76
34 37 52 44 43 43 43 52 53 59 40 52 55 40 29 29 35 32 30 29 29 28 26 25 28 32 34 34 38 38 41 45 51 57 60 69 80 82 83 85 88 87 74 70
33 36 45 38 37 43 40 43 54 51 45 45 57 44 31 34 29 28 27 24 25 26 27 30 31 35 39 41 43 42 47 59 67 73 80 82 83 85 86 87 83 73 72 76
38 41 42 43 45 52 50 47 47 44 54 46 45 32 32 32 32 28 26 26 25 27 30 33 34 41 51 50 51 58 58 63 68 75 80 84 81 81 85 78 74 74 73 76
46 43 45 50 46 41 37 40 42 44 44 47 38 40 31 32 34 28 28 28 28 29 31 36 40 46 50 51 47 49 54 56 65 71 74 74 73 72 74 76 74 72 76 82
43 54 55 59 52 45 41 37 46 40 35 35 38 38 34 33 35 31 30 30 30 31 34 37 39 41 41 38 36 39 43 49 53 60 60 64 65 70 76 72 72 77 80 80
49 55 60 55 53 46 46 35 28 27 30 34 40 40 39 41 41 38 35 35 36 37 39 39 38 37 36 36 35 33 32 38 45 52 56 66 70 72 73 76 77 77 79 87
52 53 57 59 49 53 27 26 25 25 23 24 30 37 38 39 43 43 42 38 39 41 39 38 39 38 36 32 29 29 33 42 51 58 62 66 76 81 79 79 79 80 91 97
53 57 57 55 59 50 35 31 32 31 29 26 28 30 33 36 38 40 40 39 38 37 37 37 36 34 32 29 30 37 45 50 53 57 64 73 77 77 76 86 97 89 96 92
56 54 54 64 67 70 53 48 45 39 43 34 33 35 37 37 42 41 39 38 37 37 36 35 35 34 34 36 40 42 47 52 57 63 70 80 78 85 83 81 84 82 79 77
58 59 60 65 65 59 44 43 40 43 37 36 38 39 39 40 40 40 39 37 36 35 35 35 35 38 40 40 41 46 52 59 67 74 77 78 81 84 84 81 78 79 76 71
54 62 58 57 60 52 37 38 36 34 37 36 41 42 41 39 37 36 36 35 35 36 37 40 41 42 42 45 50 56 62 69 72 73 74 78 81 78 76 73 71 70 61 47
47 35 37 40 40 34 31 30 33 35 36 36 34 34 33 34 34 34 34 35 39 43 46 47 47 48 52 58 62 64 66 69 71 72 72 70 69 66 58 49 45 41 41 39
39 31 34 33 31 30 29 28 27 28 29 30 32 33 35 33 34 37 42 46 49 51 52 53 54 58 64 68 70 69 70 71 70 64 58 51 46 42 37 34 32 31 29 29
30 33 34 34 33 32 32 30 29 29 30 32 34 37 38 39 43 48 53 54 56 58 61 63 66 72 74 70 67 65 64 60 54 49 46 41 36 30 27 26 26 27 28 32
31 30 34 37 33 33 34 33 32 32 36 39 41 44 46 50 54 58 59 62 66 70 71 71 74 71 67 66 66 64 59 52 44 38 34 29 24 23 25 26 26 31 34 39